Weather History for KPUB - February, 2012

Change the Weather History Date:

Friday, February 10, 2012

  Actual Average Record
Temperature  
Mean Temperature 32 °F 33 °F  
Max Temperature 46 °F 49 °F 75 °F (1962)
Min Temperature 18 °F 16 °F -18 °F (1933)
Degree Days  
Heating Degree Days 33 32  
Month to date heating degree days 349 332  
Since 1 July heating degree days 3569 3764  
Cooling Degree Days 0 0  
Month to date cooling degree days 0 0  
Year to date cooling degree days 0 0  
Moisture  
Dew Point 20 °F    
Average Humidity 63    
Maximum Humidity 92    
Minimum Humidity 33    
Precipitation  
Precipitation 0.00 in 0.01 in 0.90 in (1897)
Month to date precipitation 0.34 0.09  
Year to date precipitation 0.37 0.44  
Snow  
Snow 0.00 in 0.10 in 9.00 in (1897)
Month to date snowfall 2.7 1.5  
Since 1 July snowfall 24.7 19.5  
Snow Depth 0.00 in    
Sea Level Pressure  
Sea Level Pressure 30.23 in    
Wind  
Wind Speed 5 mph (East)    
Max Wind Speed 18 mph    
Max Gust Speed 23 mph    
Visibility 10 miles    
Events      
T = Trace of Precipitation, MM = Missing Value Source: NWS Daily Summary

Daily Weather History Graph

Daily Weather History Graph

Search for Another Location

Airport or City:

Trip Planner

Search our weather history database for the weather conditions in past years. The results will help you decide how hot, cold, wet, or windy it might be!

Date:

Astronomy

Feb. 10, 2012 Rise Set
Actual Time 6:54 AM MST 5:30 PM MST
Civil Twilight 6:27 AM MST 5:57 PM MST
Nautical Twilight 5:56 AM MST 6:28 PM MST
Astronomical Twilight 5:25 AM MST 6:59 PM MST
Moon 9:07 PM MST (2/10) 8:08 AM MST (2/10)
Length of Visible Light 11h 30m
Length of Day
10h 35m
Waning Gibbous, 89% of the Moon is Illuminated
Feb 10
Waning Gibbous
Feb 14
Last Quarter
Feb 21
New
Feb 29
First Quarter
Mar 8
Full

Hourly Weather History & Observations

Time (MST) Temp. Windchill Dew Point Humidity Pressure Visibility Wind Dir Wind Speed Gust Speed Precip Events Conditions
12:53 AM 26.1 °F 20.5 °F 21.9 °F 84% 30.25 in 10.0 mi WNW 4.6 mph - N/A   Mostly Cloudy
1:53 AM 24.1 °F - 19.9 °F 84% 30.24 in 10.0 mi Calm Calm - N/A   Clear
2:53 AM 21.0 °F - 19.0 °F 92% 30.23 in 10.0 mi Calm Calm - N/A   Clear
3:53 AM 19.9 °F - 17.1 °F 89% 30.22 in 10.0 mi Calm Calm - N/A   Clear
4:53 AM 23.0 °F - 17.1 °F 78% 30.22 in 10.0 mi Calm Calm - N/A   Clear
5:53 AM 19.0 °F - 15.1 °F 85% 30.24 in 10.0 mi Calm Calm - N/A   Clear
6:53 AM 18.0 °F - 15.1 °F 88% 30.26 in 9.0 mi Calm Calm - N/A   Clear
7:53 AM 21.9 °F - 18.0 °F 85% 30.26 in 8.0 mi Calm Calm - N/A   Clear
8:53 AM 30.0 °F - 23.0 °F 75% 30.22 in 10.0 mi Calm Calm - N/A   Clear
9:53 AM 32.0 °F - 24.1 °F 73% 30.24 in 10.0 mi Calm Calm - N/A   Clear
10:53 AM 35.1 °F 32.2 °F 24.1 °F 64% 30.22 in 10.0 mi SSE 3.5 mph - N/A   Clear
11:53 AM 39.0 °F 36.8 °F 21.9 °F 50% 30.18 in 10.0 mi SW 3.5 mph - N/A   Clear
12:53 PM 42.1 °F 39.2 °F 23.0 °F 47% 30.14 in 10.0 mi Variable 4.6 mph - N/A   Clear
1:53 PM 42.1 °F 37.1 °F 23.0 °F 47% 30.14 in 10.0 mi ENE 8.1 mph - N/A   Clear
2:53 PM 44.1 °F 40.8 °F 21.9 °F 42% 30.14 in 10.0 mi East 5.8 mph - N/A   Clear
3:53 PM 45.0 °F 42.6 °F 19.9 °F 37% 30.14 in 10.0 mi ENE 4.6 mph - N/A   Clear
4:53 PM 44.1 °F 40.1 °F 17.1 °F 34% 30.13 in 10.0 mi East 6.9 mph - N/A   Clear
5:53 PM 37.9 °F 33.5 °F 23.0 °F 55% 30.20 in 10.0 mi East 5.8 mph - N/A   Clear
6:53 PM 35.1 °F 27.4 °F 21.9 °F 59% 30.26 in 10.0 mi East 10.4 mph - N/A   Scattered Clouds
7:53 PM 28.9 °F 17.7 °F 19.9 °F 69% 30.30 in 10.0 mi East 15.0 mph - N/A   Clear
8:53 PM 27.0 °F 15.2 °F 18.0 °F 69% 30.31 in 10.0 mi East 15.0 mph - N/A   Clear
9:48 PM 24.8 °F 13.4 °F 17.6 °F 74% 30.24 in 10.0 mi East 12.7 mph - N/A   Mostly Cloudy
9:53 PM 25.0 °F 13.1 °F 18.0 °F 75% 30.33 in 10.0 mi East 13.8 mph - N/A   Mostly Cloudy
10:53 PM 24.1 °F 12.0 °F 17.1 °F 75% 30.34 in 10.0 mi East 13.8 mph - N/A   Overcast
11:16 PM 23.0 °F 11.1 °F 17.6 °F 80% 30.26 in 10.0 mi ESE 12.7 mph - N/A   Overcast
11:53 PM 23.0 °F 10.6 °F 18.0 °F 81% 30.33 in 10.0 mi East 13.8 mph - N/A   Overcast